H1 CPF 1 NER 2018 4 8 9 5981 glonass132 H2 1401201 9132 39620 2018 4 8 0 0 0 2018 4 11 23 45 0 900 1 1 0 0 0 H9 10 0 58216 0.00000 0 10730134.087 -4721123.127 22680678.163 10 0 58216 900.00000 0 12965946.942 -3136190.227 21774049.307 10 0 58216 1800.00000 0 15198364.810 -1797625.486 20445911.327 10 0 58216 2700.00000 0 17360445.758 -720784.805 18722135.190 10 0 58216 3600.00000 0 19385137.191 91747.805 16636195.334 10 0 58216 4500.00000 0 21207943.293 650028.350 14228521.390 10 0 58216 5400.00000 0 22769501.644 976088.327 11545720.704 10 0 58216 6300.00000 0 24017963.469 1102766.658 8639685.852 10 0 58216 7200.00000 0 24911080.024 1072087.810 5566603.465 10 0 58216 8100.00000 0 25417909.488 933254.342 2385882.232 10 0 58216 9000.00000 0 25520074.076 740337.916 -840980.568 10 0 58216 9900.00000 0 25212515.235 549765.136 -4051573.295 10 0 58216 10800.00000 0 24503715.233 417703.301 -7183763.551 10 0 58216 11700.00000 0 23415375.144 397455.361 -10176889.137 10 0 58216 12600.00000 0 21981561.494 536973.388 -12972924.156 10 0 58216 13500.00000 0 20247355.724 876595.249 -15517598.393 10 0 58216 14400.00000 0 18267061.081 1447100.338 -17761448.727 10 0 58216 15300.00000 0 16102040.105 2268167.354 -19660782.303 10 0 58216 16200.00000 0 13818271.251 3347300.777 -21178532.701 10 0 58216 17100.00000 0 11483725.155 4679273.525 -22284992.111 10 0 58216 18000.00000 0 9165668.975 6246111.919 -22958404.540 10 0 58216 18900.00000 0 6928010.565 8017626.621 -23185407.588 10 0 58216 19800.00000 0 4828793.045 9952470.358 -22961312.971 10 0 58216 20700.00000 0 2917944.635 11999680.848 -22290218.845 10 0 58216 21600.00000 0 1235378.228 14100646.761 -21184950.218 10 0 58216 22500.00000 0 -190479.055 16191416.122 -19666826.958 10 0 58216 23400.00000 0 -1343663.893 18205251.427 -17765262.458 10 0 58216 24300.00000 0 -2221120.665 20075324.620 -15517199.503 10 0 58216 25200.00000 0 -2832592.173 21737438.367 -12966393.454 10 0 58216 26100.00000 0 -3199961.749 23132658.172 -10162556.362 10 0 58216 27000.00000 0 -3356075.090 24209743.158 -7160378.915 10 0 58216 27900.00000 0 -3343092.737 24927271.518 -4018449.988 10 0 58216 28800.00000 0 -3210444.585 25255369.453 -798096.314 10 0 58216 29700.00000 0 -3012475.274 25176969.490 2437833.399 10 0 58216 30600.00000 0 -2805882.725 24688544.371 5626214.176 10 0 58216 31500.00000 0 -2647061.005 23800285.541 8704893.804 10 0 58216 32400.00000 0 -2589462.603 22535719.329 11613918.950 10 0 58216 33300.00000 0 -2681093.994 20930778.244 14296712.826 10 0 58216 34200.00000 0 -2962252.016 19032368.200 16701180.320 10 0 58216 35100.00000 0 -3463597.698 16896493.775 18780718.630 10 0 58216 36000.00000 0 -4204649.077 14586022.031 20495113.958 10 0 58216 36900.00000 0 -5192756.143 12168180.130 21811307.621 10 0 58216 37800.00000 0 -6422600.166 9711892.376 22704018.153 10 0 58216 38700.00000 0 -7876237.328 7285068.061 23156209.106 10 0 58216 39600.00000 0 -9523683.568 4951952.717 23159395.508 10 0 58216 40500.00000 0 -11324015.171 2770651.662 22713785.106 10 0 58216 41400.00000 0 -13226938.376 790926.790 21828253.559 10 0 58216 42300.00000 0 -15174762.213 -947644.284 20520155.656 10 0 58216 43200.00000 0 -17104692.584 -2417073.142 18814977.369 10 0 58216 44100.00000 0 -18951352.746 -3601874.091 16745836.131 10 0 58216 45000.00000 0 -20649426.332 -4499451.013 14352839.162 10 0 58216 45900.00000 0 -22136314.291 -5119943.911 11682311.957 10 0 58216 46800.00000 0 -23354696.602 -5485543.469 8785911.050 10 0 58216 47700.00000 0 -24254893.471 -5629303.537 5719637.259 10 0 58216 48600.00000 0 -24796928.824 -5593501.933 2542767.230 10 0 58216 49500.00000 0 -24952210.881 -5427618.422 -683277.470 10 0 58216 50400.00000 0 -24704760.034 -5186014.334 -3896103.047 10 0 58216 51300.00000 0 -24051932.602 -4925410.747 -7033536.579 10 0 58216 52200.00000 0 -23004609.515 -4702270.575 -10034817.581 10 0 58216 53100.00000 0 -21586840.833 -4570194.120 -12841765.761 10 0 58216 54000.00000 0 -19834959.312 -4577437.401 -15399903.130 10 0 58216 54900.00000 0 -17796198.086 -4764657.886 -17659509.160 10 0 58216 55800.00000 0 -15526868.156 -5162983.157 -19576588.654 10 0 58216 56700.00000 0 -13090169.647 -5792485.038 -21113733.530 10 0 58216 57600.00000 0 -10553726.249 -6661125.203 -22240861.386 10 0 58216 58500.00000 0 -7986944.115 -7764218.901 -22935815.836 10 0 58216 59400.00000 0 -5458304.141 -9084441.998 -23184815.963 10 0 58216 60300.00000 0 -3032699.770 -10592383.935 -22982744.972 10 0 58216 61200.00000 0 -768931.236 -12247626.124 -22333270.931 10 0 58216 62100.00000 0 1282539.055 -14000303.088 -21248795.687 10 0 58216 63000.00000 0 3081475.697 -15793082.832 -19750231.338 10 0 58216 63900.00000 0 4599324.220 -17563484.633 -17866607.096 10 0 58216 64800.00000 0 5820168.194 -19246437.528 -15634512.938 10 0 58216 65700.00000 0 6741148.808 -20776971.754 -13097389.979 10 0 58216 66600.00000 0 7372329.054 -22092929.034 -10304681.015 10 0 58216 67500.00000 0 7736008.561 -23137576.147 -7310857.982 10 0 58216 68400.00000 0 7865518.913 -23862009.889 -4174345.991 10 0 58216 69300.00000 0 7803551.784 -24227250.145 -956366.319 10 0 58216 70200.00000 0 7600092.709 -24205931.117 2280277.377 10 0 58216 71100.00000 0 7310050.384 -23783518.110 5472443.957 10 0 58216 72000.00000 0 6990684.567 -22958997.891 8557904.322 10 0 58216 72900.00000 0 6698944.156 -21745013.557 11476569.272 10 0 58216 73800.00000 0 6488830.529 -20167438.911 14171670.157 10 0 58216 74700.00000 0 6408899.576 -18264411.542 16590868.102 10 0 58216 75600.00000 0 6500009.261 -16084866.845 18687269.756 10 0 58216 76500.00000 0 6793408.322 -13686636.164 20420329.984 10 0 58216 77400.00000 0 7309246.513 -11134190.324 21756624.721 10 0 58216 78300.00000 0 8055568.289 -8496123.986 22670480.380 10 0 58216 79200.00000 0 9027831.061 -5842486.322 23144449.412 10 0 58216 80100.00000 0 10208966.783 -3242069.055 23169624.750 10 0 58216 81000.00000 0 11569982.932 -759763.716 22745789.179 10 0 58216 81900.00000 0 13071076.585 1545903.805 21881398.606 10 0 58216 82800.00000 0 14663214.268 3624961.227 20593401.153 10 0 58216 83700.00000 0 16290111.329 5437812.269 18906896.812 10 0 58216 84600.00000 0 17890528.562 6956620.719 16854644.853 10 0 58216 85500.00000 0 19400790.906 8166201.461 14476428.774 10 0 58217 0.00000 0 20757424.367 9064384.083 11818290.801 10 0 58217 900.00000 0 21899802.267 9661836.036 8931649.643 10 0 58217 1800.00000 0 22772692.312 9981354.684 5872318.523 10 0 58217 2700.00000 0 23328598.240 10056658.208 2699439.998 10 0 58217 3600.00000 0 23529800.555 9930727.269 -525642.293 10 0 58217 4500.00000 0 23350010.460 9653766.196 -3740554.738 10 0 58217 5400.00000 0 22775568.346 9280869.127 -6883086.309 10 0 58217 6300.00000 0 21806135.946 8869488.374 -9892380.642 10 0 58217 7200.00000 0 20454852.048 8476810.745 -12710105.406 10 0 58217 8100.00000 0 18747943.625 8157151.597 -15281577.065 10 0 58217 9000.00000 0 16723806.483 7959476.059 -17556819.760 10 0 58217 9900.00000 0 14431591.579 7925151.866 -19491537.877 10 0 58217 10800.00000 0 11929353.608 8086029.113 -21047983.418 10 0 58217 11700.00000 0 9281836.729 8462928.968 -22195701.012 10 0 58217 12600.00000 0 6557987.792 9064606.695 -22912135.323 10 0 58217 13500.00000 0 3828299.003 9887234.806 -23183088.193 10 0 58217 14400.00000 0 1162089.558 10914430.577 -23003015.365 10 0 58217 15300.00000 0 -1375161.035 12117829.346 -22375155.567 10 0 58217 16200.00000 0 -3724316.929 13458181.936 -21311487.897 10 0 58217 17100.00000 0 -5834822.451 14886932.222 -19832516.695 10 0 58217 18000.00000 0 -7666577.033 16348209.998 -17966886.586 10 0 58217 18900.00000 0 -9191369.418 17781156.203 -15750833.921 10 0 58217 19800.00000 0 -10393810.380 19122482.734 -13227484.350 10 0 58217 20700.00000 0 -11271724.297 20309158.312 -10446009.834 10 0 58217 21600.00000 0 -11835983.158 21281105.912 -7460661.659 10 0 58217 22500.00000 0 -12109790.557 21983796.180 -4329699.003 10 0 58217 23400.00000 0 -12127447.020 22370625.357 -1114235.280 10 0 58217 24300.00000 0 -11932650.641 22404975.346 2122973.508 10 0 58217 25200.00000 0 -11576407.160 22061867.246 5318772.820 10 0 58217 26100.00000 0 -11114640.512 21329137.371 8410859.544 10 0 58217 27000.00000 0 -10605607.708 20208085.592 11339011.564 10 0 58217 27900.00000 0 -10107229.948 18713568.788 14046271.341 10 0 58217 28800.00000 0 -9674455.023 16873536.253 16480059.182 10 0 58217 29700.00000 0 -9356763.986 14728027.805 18593194.049 10 0 58217 30600.00000 0 -9195928.156 12327678.073 20344802.199 10 0 58217 31500.00000 0 -9224111.087 9731791.142 21701096.704 10 0 58217 32400.00000 0 -9462394.726 7006067.225 22636014.123 10 0 58217 33300.00000 0 -9919790.533 4220076.933 23131697.732 10 0 58217 34200.00000 0 -10592775.478 1444588.498 23178819.918 10 0 58217 35100.00000 0 -11465370.673 -1251141.525 22776739.602 10 0 58217 36000.00000 0 -12509757.784 -3802002.899 21933493.514 10 0 58217 36900.00000 0 -13687406.110 -6149484.226 20665623.166 10 0 58217 37800.00000 0 -14950662.428 -8243844.087 18997842.047 10 0 58217 38700.00000 0 -16244736.861 -10045913.476 16962550.200 10 0 58217 39600.00000 0 -17510002.070 -11528457.465 14599205.788 10 0 58217 40500.00000 0 -18684510.377 -12677042.249 11953565.557 10 0 58217 41400.00000 0 -19706624.760 -13490373.870 9076808.129 10 0 58217 42300.00000 0 -20517654.880 -13980096.356 6024556.158 10 0 58217 43200.00000 0 -21064389.134 -14170059.032 2855814.998 10 0 58217 44100.00000 0 -21301417.809 -14095084.372 -368152.955 10 0 58217 45000.00000 0 -21193150.704 -13799288.070 -3584997.724 10 0 58217 45900.00000 0 -20715444.900 -13334021.491 -6732473.720 10 0 58217 46800.00000 0 -19856774.090 -12755522.170 -9749632.269 10 0 58217 47700.00000 0 -18618889.455 -12122370.257 -12577992.534 10 0 58217 48600.00000 0 -17016942.861 -11492857.028 -15162668.863 10 0 58217 49500.00000 0 -15079065.050 -10922375.512 -17453433.279 10 0 58217 50400.00000 0 -12845414.079 -10460942.715 -19405692.630 10 0 58217 51300.00000 0 -10366731.084 -10150957.858 -20981361.462 10 0 58217 52200.00000 0 -7702460.932 -10025291.590 -22149613.320 10 0 58217 53100.00000 0 -4918513.755 -10105787.778 -22887495.197 10 0 58217 54000.00000 0 -2084758.452 -10402242.528 -23180392.302 10 0 58217 54900.00000 0 727649.089 -10911905.420 -23022332.877 10 0 58217 55800.00000 0 3448992.772 -11619526.176 -22416125.679 10 0 58217 56700.00000 0 6013665.017 -12497947.009 -21373325.890 10 0 58217 57600.00000 0 8362666.134 -13509217.790 -19914028.474 10 0 58217 58500.00000 0 10445829.488 -14606188.679 -18066491.466 10 0 58217 59400.00000 0 12223678.733 -15734514.151 -15866595.259 10 0 58217 60300.00000 0 13668838.606 -16834984.315 -13357147.418 10 0 58217 61200.00000 0 14766939.306 -17846084.696 -10587046.200 10 0 58217 62100.00000 0 15516976.208 -18706675.372 -7610319.176 10 0 58217 63000.00000 0 15931109.902 -19358674.595 -4485056.361 10 0 58217 63900.00000 0 16033915.712 -19749631.455 -1272260.008 10 0 58217 64800.00000 0 15861115.802 -19835076.696 1965364.829 10 0 58217 65700.00000 0 15457849.432 -19580550.309 5164653.408 10 0 58217 66600.00000 0 14876556.876 -18963218.594 8263231.608 10 0 58217 67500.00000 0 14174569.169 -17973011.356 11200747.148 10 0 58217 68400.00000 0 13411508.230 -16613230.822 13920056.007 10 0 58217 69300.00000 0 12646609.596 -14900606.888 16368339.707 10 0 58217 70200.00000 0 11936082.641 -12864797.143 18498131.149 10 0 58217 71100.00000 0 11330620.810 -10547353.808 20268229.181 10 0 58217 72000.00000 0 10873167.106 -8000202.212 21644484.799 10 0 58217 72900.00000 0 10597028.440 -5283695.650 22600445.078 10 0 58217 73800.00000 0 10524416.937 -2464328.605 23117844.103 10 0 58217 74700.00000 0 10665477.807 387795.933 23186933.338 10 0 58217 75600.00000 0 11017842.580 3201640.066 22806647.122 10 0 58217 76500.00000 0 11566724.439 5907935.434 21984602.040 10 0 58217 77400.00000 0 12285549.880 8441807.792 20736931.768 10 0 58217 78300.00000 0 13137098.854 10745215.057 19087961.889 10 0 58217 79200.00000 0 14075104.818 12769100.203 17069731.645 10 0 58217 80100.00000 0 15046247.457 14475172.308 14721372.172 10 0 58217 81000.00000 0 15992454.926 15837244.459 12088352.974 10 0 58217 81900.00000 0 16853419.986 16842075.341 9221610.524 10 0 58217 82800.00000 0 17569225.644 17489681.409 6176574.911 10 0 58217 83700.00000 0 18082971.460 17793108.181 3012112.126 10 0 58217 84600.00000 0 18343291.512 17777671.111 -210598.926 10 0 58217 85500.00000 0 18306659.221 17479698.103 -3429234.188 10 0 58218 0.00000 0 17939382.852 16944826.155 -6581515.713 10 0 58218 900.00000 0 17219207.357 16225922.966 -9606404.864 10 0 58218 1800.00000 0 16136455.900 15380719.751 -12445274.326 10 0 58218 2700.00000 0 14694659.665 14469253.963 -15043038.264 10 0 58218 3600.00000 0 12910649.763 13551228.093 -17349218.355 10 0 58218 4500.00000 0 10814103.456 12683395.195 -19318925.514 10 0 58218 5400.00000 0 8446561.546 11917080.572 -20913738.271 10 0 58218 6300.00000 0 5859954.812 11295943.966 -22102460.388 10 0 58218 7200.00000 0 3114698.265 10854076.974 -22861742.342 10 0 58218 8100.00000 0 277430.081 10614516.755 -23176553.697 10 0 58218 9000.00000 0 -2581512.744 10588240.058 -23040495.955 10 0 58218 9900.00000 0 -5390778.313 10773681.643 -22455948.381 10 0 58218 10800.00000 0 -8080732.475 11156799.295 -21434042.380 10 0 58218 11700.00000 0 -10586126.641 11711684.487 -19994463.283 10 0 58218 12600.00000 0 -12848589.091 12401694.558 -18165081.885 10 0 58218 13500.00000 0 -14818835.125 13181059.719 -15981421.581 10 0 58218 14400.00000 0 -16458502.673 13996897.604 -13485970.482 10 0 58218 15300.00000 0 -17741535.481 14791550.042 -10727351.500 10 0 58218 16200.00000 0 -18655055.146 15505142.404 -7759366.638 10 0 58218 17100.00000 0 -19199685.029 16078255.767 -4639934.748 10 0 58218 18000.00000 0 -19389312.654 16454596.824 -1429944.794 10 0 58218 18900.00000 0 -19250301.549 16583550.344 1807951.360 10 0 58218 19800.00000 0 -18820187.378 16422503.934 5010581.104 10 0 58218 20700.00000 0 -18145915.531 15938844.782 8115501.761 10 0 58218 21600.00000 0 -17281697.156 15111542.501 11062233.408 10 0 58218 22500.00000 0 -16286576.810 13932250.273 13793448.150 10 0 58218 23400.00000 0 -15221816.931 12405877.669 16256091.346 10 0 58218 24300.00000 0 -14148211.581 10550611.322 18402412.434 10 0 58218 25200.00000 0 -13123444.114 8397383.425 20190885.347 10 0 58218 26100.00000 0 -12199600.736 5988811.441 21587001.332 10 0 58218 27000.00000 0 -11420944.317 3377654.543 22563920.075 10 0 58218 27900.00000 0 -10822041.024 624852.138 23102968.268 10 0 58218 28800.00000 0 -10426316.732 -2202773.130 23193977.899 10 0 58218 29700.00000 0 -10245101.668 -5035052.344 22835459.809 10 0 58218 30600.00000 0 -10277200.980 -7801142.492 22034611.072 10 0 58218 31500.00000 0 -10509006.984 -10432224.054 20807157.739 10 0 58218 32400.00000 0 -10915146.424 -12864113.950 19177037.229 10 0 58218 33300.00000 0 -11459634.134 -15039687.701 17175927.272 10 0 58218 34200.00000 0 -12097483.910 -16911012.678 14842630.818 10 0 58218 35100.00000 0 -12776708.790 -18441106.468 12222328.561 10 0 58218 36000.00000 0 -13440627.175 -19605249.637 9365712.887 10 0 58218 36900.00000 0 -14030378.808 -20391800.273 6328019.060 10 0 58218 37800.00000 0 -14487546.019 -20802478.025 3167971.173 10 0 58218 38700.00000 0 -14756771.267 -20852106.788 -53338.123 10 0 58218 39600.00000 0 -14788261.973 -20567827.268 -3273613.678 10 0 58218 40500.00000 0 -14540078.061 -19987812.283 -6430548.470 10 0 58218 41400.00000 0 -13980106.198 -19159538.067 -9463016.950 10 0 58218 42300.00000 0 -13087637.405 -18137683.132 -12312248.851 10 0 58218 43200.00000 0 -11854480.670 -16981741.741 -14922961.596 10 0 58218 44100.00000 0 -10285564.068 -15753451.008 -17244429.865 10 0 58218 45000.00000 0 -8398995.924 -14514138.653 -19231471.808 10 0 58218 45900.00000 0 -6225580.658 -13322102.016 -20845332.777 10 0 58218 46800.00000 0 -3807806.517 -12230128.038 -22054449.159 10 0 58218 47700.00000 0 -1198344.439 -11283258.451 -22835076.781 10 0 58218 48600.00000 0 1541882.239 -10516894.596 -23171770.832 10 0 58218 49500.00000 0 4345979.350 -9955322.455 -23057706.749 10 0 58218 50400.00000 0 7143621.583 -9610721.220 -22494834.384 10 0 58218 51300.00000 0 9863745.847 -9482698.614 -21493860.896 10 0 58218 52200.00000 0 12437286.755 -9558374.051 -20074061.021 10 0 58218 53100.00000 0 14799840.026 -9813007.560 -18262916.882 10 0 58218 54000.00000 0 16894142.078 -10211148.957 -16095592.998 10 0 58218 54900.00000 0 18672261.205 -10708259.353 -13614255.728 10 0 58218 55800.00000 0 20097407.386 -11252736.369 -10867249.929 10 0 58218 56700.00000 0 21145283.810 -11788256.684 -7908148.943 10 0 58218 57600.00000 0 21804922.580 -12256335.395 -4794697.050 10 0 58218 58500.00000 0 22078969.164 -12598991.908 -1587666.286 10 0 58218 59400.00000 0 21983404.011 -12761407.189 1650348.411 10 0 58218 60300.00000 0 21546714.134 -12694457.467 4856170.288 10 0 58218 61200.00000 0 20808551.320 -12357014.898 7967291.659 10 0 58218 62100.00000 0 19817935.801 -11717915.960 10923108.235 10 0 58218 63000.00000 0 18631083.686 -10757513.034 13666111.137 10 0 58218 63900.00000 0 17308952.313 -9468742.997 16143012.012 10 0 58218 64800.00000 0 15914609.231 -7857667.694 18305778.804 10 0 58218 65700.00000 0 14510537.323 -5943464.003 20112562.029 10 0 58218 66600.00000 0 13155990.445 -3757864.805 21528494.198 10 0 58218 67500.00000 0 11904510.834 -1344075.290 22526348.167 10 0 58218 68400.00000 0 10801711.778 1244789.152 23087043.363 10 0 58218 69300.00000 0 9883417.019 3947677.510 23199992.014 10 0 58218 70200.00000 0 9174232.757 6697907.714 22863280.777 10 0 58218 71100.00000 0 8686609.520 9425705.659 22083686.196 10 0 58218 72000.00000 0 8420430.610 12060874.007 20876525.344 10 0 58218 72900.00000 0 8363141.866 14535481.460 19265345.860 10 0 58218 73800.00000 0 8490415.212 16786462.808 17281462.118 10 0 58218 74700.00000 0 8767316.697 18758023.959 14963346.846 10 0 58218 75600.00000 0 9149929.099 20403754.466 12355889.743 10 0 58218 76500.00000 0 9587360.824 21688362.032 9509536.791 10 0 58218 77400.00000 0 10024057.034 22588958.770 6479326.001 10 0 58218 78300.00000 0 10402316.676 23095847.355 3323837.059 10 0 58218 79200.00000 0 10664910.553 23212775.344 104073.808 10 0 58218 80100.00000 0 10757691.381 22956647.630 -3117700.048 10 0 58218 81000.00000 0 10632086.812 22356709.041 -6279150.834 10 0 58218 81900.00000 0 10247371.006 21453230.781 -9319068.554 10 0 58218 82800.00000 0 9572619.107 20295754.799 -12178542.103 10 0 58218 83700.00000 0 8588261.753 18940968.450 -14802094.108 10 0 58218 84600.00000 0 7287172.860 17450297.187 -17138753.992 10 0 58218 85500.00000 0 5675243.045 15887314.958 -19143048.645 10 0 58219 0.00000 0 3771412.110 14315079.755 -20775891.523 10 0 58219 900.00000 0 1607155.739 12793505.372 -22005352.791 10 0 58219 1800.00000 0 -774553.985 11376878.686 -22807294.520 10 0 58219 2700.00000 0 -3320775.850 10111627.802 -23165858.195 10 0 58219 3600.00000 0 -5970552.037 9034433.668 -23073793.603 10 0 58219 4500.00000 0 -8657207.794 8170766.511 -22532621.269 10 0 58219 5400.00000 0 -11310903.782 7533909.091 -21552623.814 10 0 58219 6300.00000 0 -13861335.896 7124509.253 -20152664.677 10 0 58219 7200.00000 0 -16240470.099 6930681.783 -18359836.195 10 0 58219 8100.00000 0 -18385197.763 6928656.221 -16208942.544 10 0 58219 9000.00000 0 -20239799.645 7083943.843 -13741826.556 10 0 58219 9900.00000 0 -21758114.000 7352974.533 -11006553.048 10 0 58219 10800.00000 0 -22905316.660 7685133.704 -8056464.593 10 0 58219 11700.00000 0 -23659237.150 8025111.795 -4949128.719 10 0 58219 12600.00000 0 -24011154.666 8315465.017 -1745198.326 10 0 58219 13500.00000 0 -23966040.231 8499276.618 1492790.810 10 0 58219 14400.00000 0 -23542235.304 8522803.419 4701660.041 10 0 58219 15300.00000 0 -22770581.539 8337993.083 7818838.965 10 0 58219 16200.00000 0 -21693040.214 7904763.364 10783601.247 10 0 58219 17100.00000 0 -20360861.742 7192945.187 13538259.352 10 0 58219 18000.00000 0 -18832384.816 6183806.392 16029293.530 10 0 58219 18900.00000 0 -17170560.212 4871091.370 18208392.455 10 0 58219 19800.00000 0 -15440305.269 3261532.929 20033385.296 10 0 58219 20700.00000 0 -13705801.615 1374815.550 21469047.688 10 0 58219 21600.00000 0 -12027849.976 -757007.550 22487767.237 10 0 58219 22500.00000 0 -10461392.624 -3090618.181 23070057.372 10 0 58219 23400.00000 0 -9053305.995 -5573010.766 23204911.492 10 0 58219 24300.00000 0 -7840553.862 -8143477.462 22889992.665 10 0 58219 25200.00000 0 -6848775.815 -10735918.173 22131657.149 10 0 58219 26100.00000 0 -6091367.261 -13281379.812 20944812.953 10 0 58219 27000.00000 0 -5569086.604 -15710720.385 19352617.513 10 0 58219 27900.00000 0 -5270203.432 -17957288.821 17386021.101 10 0 58219 28800.00000 0 -5171179.411 -19959511.035 15083165.167 10 0 58219 29700.00000 0 -5237851.782 -21663276.942 12488647.060 10 0 58219 30600.00000 0 -5427068.974 -23024031.284 9652664.735 10 0 58219 31500.00000 0 -5688709.457 -24008483.155 6630057.100 10 0 58219 32400.00000 0 -5967999.342 -24595864.659 3479257.367 10 0 58219 33300.00000 0 -6208031.975 -24778687.379 261178.317 10 0 58219 34200.00000 0 -6352384.464 -24562965.642 -2961950.227 10 0 58219 35100.00000 0 -6347721.875 -23967897.348 -6127770.558 10 0 58219 36000.00000 0 -6146280.103 -23025015.195 -9174991.031 10 0 58219 36900.00000 0 -5708123.179 -21776842.878 -12044562.655 10 0 58219 37800.00000 0 -5003079.656 -20275111.234 -14680816.318 10 0 58219 38700.00000 0 -4012275.685 -18578607.504 -17032539.258 10 0 58219 39600.00000 0 -2729198.722 -16750746.262 -19053970.101 10 0 58219 40500.00000 0 -1160244.967 -14856962.291 -20705693.254 10 0 58219 41400.00000 0 675275.217 -12962033.337 -21955415.046 10 0 58219 42300.00000 0 2745677.171 -11127444.087 -22778605.889 10 0 58219 43200.00000 0 5007967.753 -9408901.280 -23158995.187 10 0 58219 44100.00000 0 7409395.649 -7854104.057 -23088908.146 10 0 58219 45000.00000 0 9889424.143 -6500863.478 -22569436.535 10 0 58219 45900.00000 0 12382046.162 -5375650.775 -21610438.493 10 0 58219 46800.00000 0 14818346.502 -4492636.245 -20230365.734 10 0 58219 47700.00000 0 17129204.821 -3853260.193 -18455919.909 10 0 58219 48600.00000 0 19248026.459 -3446354.828 -16321543.465 10 0 58219 49500.00000 0 21113386.098 -3248812.474 -13868753.839 10 0 58219 50400.00000 0 22671472.267 -3226772.025 -11145333.453 10 0 58219 51300.00000 0 23878228.689 -3337272.951 -8204391.292 10 0 58219 52200.00000 0 24701101.062 -3530305.785 -5103314.901 10 0 58219 53100.00000 0 25120314.518 -3751170.544 -1902634.496 10 0 58219 54000.00000 0 25129627.247 -3943040.975 1335177.041 10 0 58219 54900.00000 0 24736528.401 -4049623.467 4546942.957 10 0 58219 55800.00000 0 23961872.488 -4017795.373 7670033.818 10 0 58219 56700.00000 0 22838966.950 -3800108.609 10643604.710 10 0 58219 57600.00000 0 21412153.153 -3357050.491 13409792.585 10 0 58219 58500.00000 0 19734942.736 -2658964.804 15914849.031 10 0 58219 59400.00000 0 17867789.957 -1687551.141 18110185.756 10 0 58219 60300.00000 0 15875595.651 -436879.108 19953312.441 10 0 58219 61200.00000 0 13825049.177 1086124.835 21408649.249 10 0 58219 62100.00000 0 11781920.588 2861737.577 22448199.506 10 0 58219 63000.00000 0 9808416.388 4858043.109 23052071.170 10 0 58219 63900.00000 0 7960708.649 7032053.525 23208838.905 10 0 58219 64800.00000 0 6286739.006 9331299.723 22915741.845 10 0 58219 65700.00000 0 4824386.869 11695825.157 22178715.185 10 0 58219 66600.00000 0 3600075.574 14060499.642 21012256.688 10 0 58219 67500.00000 0 2627871.627 16357557.663 19439132.029 10 0 58219 68400.00000 0 1909111.743 18519256.783 17489925.493 10 0 58219 69300.00000 0 1432570.684 20480547.139 15202445.088 10 0 58219 70200.00000 0 1175160.756 22181642.838 12620993.439 10 0 58219 71100.00000 0 1103132.184 23570390.234 9795517.922 10 0 58219 72000.00000 0 1173723.250 24604336.198 6780655.660 10 0 58219 72900.00000 0 1337190.740 25252411.833 3634690.625 10 0 58219 73800.00000 0 1539135.698 25496162.536 418441.718 10 0 58219 74700.00000 0 1723027.391 25330473.702 -2805897.928 10 0 58219 75600.00000 0 1832820.086 24763761.876 -5975949.301 10 0 58219 76500.00000 0 1815553.226 23817622.871 -9030341.709 10 0 58219 77400.00000 0 1623826.026 22525950.636 -11909890.664 10 0 58219 78300.00000 0 1218042.377 20933562.341 -14558737.483 10 0 58219 79200.00000 0 568331.009 19094385.548 -16925429.121 10 0 58219 80100.00000 0 -343940.942 17069281.529 -18963917.584 10 0 58219 81000.00000 0 -1525126.434 14923594.030 -20634459.590 10 0 58219 81900.00000 0 -2968775.175 12724524.388 -21904398.814 10 0 58219 82800.00000 0 -4655653.214 10538441.541 -22748814.879 10 0 58219 83700.00000 0 -6554307.739 8428238.544 -23151025.684 10 0 58219 84600.00000 0 -8622156.610 6450845.669 -23102932.129 10 0 58219 85500.00000 0 -10807059.893 4655004.267 -22605197.111 99